Estación de C. Llollinco

Ultimos registro cada 15 minutos 63
Estación Fecha / Hora Temperatura Humedad Lluvia Velocidad Dirección Radiación Presion
63 C. Llollinco 03-05-2026 15:30 11 98,2 0 0 47 62 0
62 C. Llollinco 03-05-2026 15:15 10,7 98,3 0,3 0 0 60 0
61 C. Llollinco 03-05-2026 15:00 10,4 98,5 1,4 0 155 55 0
60 C. Llollinco 03-05-2026 14:45 10,3 98,2 1,1 0 158 50 0
59 C. Llollinco 03-05-2026 14:30 10,3 98,3 0,4 0,1 174 35 0
58 C. Llollinco 03-05-2026 14:15 10,3 98,2 0,1 0 0 29 0
57 C. Llollinco 03-05-2026 14:00 10,2 98,3 0,1 0 0 27 0
56 C. Llollinco 03-05-2026 13:45 10,2 98,2 0,1 0 0 37 0
55 C. Llollinco 03-05-2026 13:30 10,1 98,2 0 0 0 38 0
54 C. Llollinco 03-05-2026 13:15 10 98,2 0 0 0 48 0
53 C. Llollinco 03-05-2026 13:00 9,8 98,1 0,3 0 0 44 0
52 C. Llollinco 03-05-2026 12:45 9,8 98,2 0 0 0 49 0
51 C. Llollinco 03-05-2026 12:30 9,6 98,1 0 0 0 44 0
50 C. Llollinco 03-05-2026 12:15 9,4 98 0 0,1 195 49 0
49 C. Llollinco 03-05-2026 12:00 9,3 98,3 0 0 156 49 0
48 C. Llollinco 03-05-2026 11:45 9 98,2 0 0 0 38 0
47 C. Llollinco 03-05-2026 11:30 8,9 98,2 0 0 0 37 0
46 C. Llollinco 03-05-2026 11:15 8,8 98,1 0,2 0 0 38 0
45 C. Llollinco 03-05-2026 11:00 8,6 98,2 0,3 0 0 53 0
44 C. Llollinco 03-05-2026 10:45 8,3 98,1 0,6 0 160 43 0
43 C. Llollinco 03-05-2026 10:30 8,2 98 0,6 0,2 158 25 0
42 C. Llollinco 03-05-2026 10:15 8 97,9 0,4 0,2 157 27 0
41 C. Llollinco 03-05-2026 10:00 7,9 97,9 0,7 0,1 175 24 0
40 C. Llollinco 03-05-2026 09:45 7,7 97,8 0,7 0 0 18 0
39 C. Llollinco 03-05-2026 09:30 7,6 97,8 0,6 0 198 14 0
38 C. Llollinco 03-05-2026 09:15 7,5 97,7 0,2 0 281 11 0
37 C. Llollinco 03-05-2026 09:00 7,5 97,7 0,3 0,1 294 12 0
36 C. Llollinco 03-05-2026 08:45 7,2 97,8 1,3 0 355 11 0
35 C. Llollinco 03-05-2026 08:30 7,1 97,7 0,4 0,2 0 9 0
34 C. Llollinco 03-05-2026 08:15 7 97,6 0,5 0 20 6 0
33 C. Llollinco 03-05-2026 08:00 6,8 97,7 0,5 0,2 149 3 0
32 C. Llollinco 03-05-2026 07:45 6,8 97,5 0,3 0,2 159 1 0
31 C. Llollinco 03-05-2026 07:30 6,7 97,5 0,3 0 0 0 0
30 C. Llollinco 03-05-2026 07:15 6,6 97,6 0,3 0 32 0 0
29 C. Llollinco 03-05-2026 07:00 6,5 97,6 0 0,1 207 0 0
28 C. Llollinco 03-05-2026 06:45 6,4 97,6 0 0 0 0 0
27 C. Llollinco 03-05-2026 06:30 6,4 97,9 0 0 0 0 0
26 C. Llollinco 03-05-2026 06:15 6,2 97,8 0 0,1 216 0 0
25 C. Llollinco 03-05-2026 06:00 5,9 97,9 0 0 0 0 0
24 C. Llollinco 03-05-2026 05:45 5,6 97,8 0 0 219 0 0
23 C. Llollinco 03-05-2026 05:30 5,1 97,9 0 0 172 0 0
22 C. Llollinco 03-05-2026 05:15 5 97,7 0 0 0 0 0
21 C. Llollinco 03-05-2026 05:00 4,9 97,6 0 0 0 0 0
20 C. Llollinco 03-05-2026 04:45 4,9 97,5 0 0 0 0 0
19 C. Llollinco 03-05-2026 04:30 5,1 97,4 0 0 0 0 0
18 C. Llollinco 03-05-2026 04:15 5,1 97,5 0 0 0 0 0
17 C. Llollinco 03-05-2026 04:00 5 97,5 0 0 27 0 0
16 C. Llollinco 03-05-2026 03:45 4,9 97,5 0 0 0 0 0
15 C. Llollinco 03-05-2026 03:30 5,2 97,2 0 0,2 49 0 0
14 C. Llollinco 03-05-2026 03:15 5,4 97,5 0 0 0 0 0
13 C. Llollinco 03-05-2026 03:00 5,4 97,4 0 0 0 0 0
12 C. Llollinco 03-05-2026 02:45 5,3 97,5 0 0 0 0 0
11 C. Llollinco 03-05-2026 02:30 5,3 97,4 0 0 0 0 0
10 C. Llollinco 03-05-2026 02:15 5,2 97,4 0 0 0 0 0
9 C. Llollinco 03-05-2026 02:00 5 97,4 0 0 0 0 0
8 C. Llollinco 03-05-2026 01:45 4,8 97,5 0 0 0 0 0
7 C. Llollinco 03-05-2026 01:30 4,8 97,2 0 0 0 0 0
6 C. Llollinco 03-05-2026 01:15 4,6 97,2 0 0 0 0 0
5 C. Llollinco 03-05-2026 01:00 4,5 97,2 0 0 2 0 0
4 C. Llollinco 03-05-2026 00:45 4,3 97,1 0 0 0 0 0
3 C. Llollinco 03-05-2026 00:30 4,1 97 0 0 0 0 0
2 C. Llollinco 03-05-2026 00:15 3,8 96,9 0 0 0 0 0
1 C. Llollinco 03-05-2026 00:00 3,6 96,6 0 0 0 0 0